Weather History for KPVW - September, 2013

Change the Weather History Date:

Wednesday, September 18, 2013

  Actual Average Record
Temperature  
Mean Temperature 74 °F -  
Max Temperature 84 °F 81 °F 96 °F (2005)
Min Temperature 63 °F 58 °F 41 °F (1971)
Cooling Degree Days 8    
Growing Degree Days 24 (Base 50)    
Moisture  
Dew Point 62 °F    
Average Humidity 72    
Maximum Humidity 95    
Minimum Humidity 43    
Precipitation  
Precipitation 0.00 in - - ()
Sea Level Pressure  
Sea Level Pressure 30.00 in    
Wind  
Wind Speed 9 mph (SSW)    
Max Wind Speed 18 mph    
Max Gust Speed 23 mph    
Visibility 10 miles    
Events      
Averages and records for this station are not official NWS values.
T = Trace of Precipitation, MM = Missing Value Source: NWS Daily Summary

Daily Weather History Graph

Daily Weather History Graph

Search for Another Location

Airport or City:

Trip Planner

Search our weather history database for the weather conditions in past years. The results will help you decide how hot, cold, wet, or windy it might be!

Date:

Astronomy

Sep. 18, 2013 Rise Set
Actual Time 7:32 AM CDT 7:48 PM CDT
Civil Twilight 7:07 AM CDT 8:13 PM CDT
Nautical Twilight 6:37 AM CDT 8:43 PM CDT
Astronomical Twilight 6:08 AM CDT 9:12 PM CDT
Moon 7:14 PM CDT (9/18) 6:37 AM CDT (9/18)
Length of Visible Light 13h 06m
Length of Day
12h 16m
Waxing Gibbous, 99% of the Moon is Illuminated
Sep 18
Waxing Gibbous
Sep 19
Full
Sep 26
Last Quarter
Oct 4
New
Oct 11
First Quarter

Hourly Weather History & Observations

Time (CDT) Temp. Heat Index Dew Point Humidity Pressure Visibility Wind Dir Wind Speed Gust Speed Precip Events Conditions
12:15 AM 69.8 °F - 67.1 °F 91% 30.07 in 10.0 mi South 8.1 mph - N/A   Clear
12:35 AM 67.5 °F - 65.3 °F 93% 30.07 in 10.0 mi South 5.8 mph - N/A   Clear
12:55 AM 67.5 °F - 65.7 °F 94% 30.07 in 10.0 mi South 5.8 mph - N/A   Clear
1:15 AM 67.3 °F - 65.5 °F 94% 30.07 in 10.0 mi South 6.9 mph - N/A   Clear
1:35 AM 66.6 °F - 64.9 °F 95% 30.07 in 10.0 mi South 5.8 mph - N/A   Clear
1:55 AM 66.4 °F - 64.8 °F 95% 30.06 in 10.0 mi South 5.8 mph - N/A   Clear
2:15 AM 66.6 °F - 65.1 °F 95% 30.06 in 10.0 mi South 5.8 mph - N/A   Clear
2:35 AM 67.3 °F - 65.8 °F 95% 30.06 in 10.0 mi South 6.9 mph - N/A   Clear
2:55 AM 67.5 °F - 65.7 °F 94% 30.05 in 10.0 mi SSW 6.9 mph - N/A   Clear
3:15 AM 67.5 °F - 65.3 °F 93% 30.05 in 10.0 mi South 6.9 mph - N/A   Clear
3:35 AM 67.5 °F - 65.3 °F 93% 30.04 in 10.0 mi SSW 5.8 mph - N/A   Clear
3:55 AM 67.5 °F - 65.5 °F 93% 30.04 in 10.0 mi SSW 5.8 mph - N/A   Clear
4:15 AM 67.5 °F - 65.1 °F 92% 30.03 in 10.0 mi SSW 8.1 mph - N/A   Clear
4:35 AM 67.6 °F - 64.9 °F 91% 30.03 in 10.0 mi SSW 8.1 mph - N/A   Clear
4:55 AM 70.0 °F - 66.4 °F 88% 30.02 in 10.0 mi SSW 9.2 mph - N/A   Clear
5:15 AM 67.8 °F - 64.6 °F 89% 30.02 in 10.0 mi SSW 8.1 mph - N/A   Clear
5:35 AM 67.5 °F - 64.4 °F 90% 30.02 in 10.0 mi SSW 8.1 mph - N/A   Clear
5:55 AM 67.5 °F - 64.4 °F 90% 30.02 in 10.0 mi SSW 9.2 mph - N/A   Clear
6:15 AM 64.9 °F - 61.9 °F 90% 30.02 in 10.0 mi SSW 8.1 mph - N/A   Clear
6:35 AM 64.9 °F - 62.1 °F 90% 30.02 in 10.0 mi SW 6.9 mph - N/A   Clear
6:55 AM 63.7 °F - 61.2 °F 91% 30.03 in 10.0 mi SW 5.8 mph - N/A   Clear
7:15 AM 63.1 °F - 61.0 °F 93% 30.04 in 10.0 mi SW 4.6 mph - N/A   Clear
7:35 AM 63.1 °F - 61.2 °F 93% 30.04 in 10.0 mi SW 5.8 mph - N/A   Clear
7:55 AM 63.1 °F - 61.2 °F 93% 30.04 in 10.0 mi SW 6.9 mph - N/A   Clear
8:15 AM 64.4 °F - 62.2 °F 93% 30.05 in 10.0 mi SSW 6.9 mph - N/A   Clear
8:35 AM 66.9 °F - 63.7 °F 89% 30.05 in 10.0 mi SSW 8.1 mph - N/A   Clear
8:55 AM 68.9 °F - 64.9 °F 87% 30.05 in 10.0 mi SSW 9.2 mph - N/A   Clear
9:15 AM 70.0 °F - 65.1 °F 85% 30.05 in 10.0 mi SSW 11.5 mph - N/A   Clear
9:35 AM - - - N/A% - 10.0 mi North - - N/A   Clear
9:55 AM - - - N/A% - - North - - N/A   Unknown
10:15 AM - - - N/A% - - North - - N/A   Unknown
10:35 AM - - - N/A% - - North - - N/A   Unknown
10:55 AM - - - N/A% - - North - - N/A   Unknown
11:15 AM - - - N/A% - - North - - N/A   Unknown
11:35 AM - - - N/A% - - North - - N/A   Unknown
11:55 AM - - - N/A% - - North - - N/A   Unknown
12:15 PM 80.1 °F 81.1 °F 61.3 °F 53% 30.04 in 10.0 mi SSW 16.1 mph 21.9 mph N/A   Unknown
12:35 PM 81.0 °F 81.7 °F 60.6 °F 50% 30.04 in 10.0 mi SSW 18.4 mph 23.0 mph N/A   Clear
12:55 PM 81.5 °F 82.1 °F 60.6 °F 49% 30.02 in 10.0 mi SSW 16.1 mph 21.9 mph N/A   Clear
1:15 PM 81.5 °F 82.1 °F 60.6 °F 49% 30.02 in 10.0 mi SSW 13.8 mph 20.7 mph N/A   Clear
1:35 PM 82.6 °F 83.4 °F 62.4 °F 50% 30.02 in 10.0 mi South 13.8 mph - N/A   Scattered Clouds
1:55 PM 80.6 °F 81.5 °F 61.2 °F 51% 30.01 in 10.0 mi SSW 15.0 mph 21.9 mph N/A   Scattered Clouds
2:15 PM 82.0 °F 83.0 °F 62.1 °F 51% 30.00 in 10.0 mi SSW 13.8 mph 19.6 mph N/A   Mostly Cloudy
2:35 PM 81.9 °F 82.8 °F 61.9 °F 51% 29.99 in 10.0 mi SSW 15.0 mph 23.0 mph N/A   Scattered Clouds
2:55 PM 81.9 °F 82.6 °F 61.3 °F 50% 29.99 in 10.0 mi SSW 15.0 mph 20.7 mph N/A   Scattered Clouds
3:15 PM 83.7 °F 84.1 °F 61.3 °F 47% 29.98 in 10.0 mi SSW 15.0 mph 21.9 mph N/A   Scattered Clouds
3:35 PM 82.2 °F 82.6 °F 60.3 °F 47% 29.97 in 10.0 mi South 15.0 mph 21.9 mph N/A   Scattered Clouds
3:55 PM 83.8 °F 83.8 °F 59.7 °F 44% 29.96 in 10.0 mi SSW 13.8 mph 23.0 mph N/A   Scattered Clouds
4:15 PM 83.5 °F 83.4 °F 59.5 °F 44% 29.95 in 10.0 mi SSW 16.1 mph 23.0 mph N/A   Clear
4:35 PM 84.4 °F 84.2 °F 59.4 °F 43% 29.95 in 10.0 mi SSW 17.3 mph 23.0 mph N/A   Scattered Clouds
4:55 PM 83.7 °F 83.6 °F 59.4 °F 44% 29.94 in 10.0 mi South 12.7 mph 23.0 mph N/A   Scattered Clouds
5:15 PM 83.8 °F 83.6 °F 59.4 °F 43% 29.94 in 10.0 mi South 17.3 mph 21.9 mph N/A   Scattered Clouds
5:35 PM 83.3 °F 83.1 °F 58.8 °F 43% 29.94 in 10.0 mi South 15.0 mph 19.6 mph N/A   Clear
5:55 PM 83.3 °F 83.1 °F 58.5 °F 43% 29.93 in 10.0 mi SSW 15.0 mph 19.6 mph N/A   Clear
6:15 PM 82.6 °F 82.3 °F 57.9 °F 43% 29.93 in 10.0 mi South 15.0 mph 20.7 mph N/A   Clear
6:35 PM 82.6 °F 82.6 °F 59.0 °F 45% 29.93 in 10.0 mi South 12.7 mph 18.4 mph N/A   Clear
6:55 PM 80.6 °F 81.2 °F 59.5 °F 49% 29.93 in 10.0 mi South 13.8 mph 19.6 mph N/A   Clear
7:15 PM 80.1 °F 81.0 °F 60.4 °F 51% 29.93 in 10.0 mi South 12.7 mph - N/A   Clear
7:35 PM 77.5 °F - 60.1 °F 55% 29.93 in 10.0 mi South 10.4 mph - N/A   Clear
7:55 PM 77.5 °F - 61.7 °F 58% 29.94 in 10.0 mi South 10.4 mph - N/A   Clear
8:15 PM 75.2 °F - 60.1 °F 59% 29.94 in 10.0 mi South 10.4 mph - N/A   Clear
8:35 PM 75.2 °F - 62.2 °F 64% 29.94 in 10.0 mi South 10.4 mph - N/A   Clear
8:55 PM 75.2 °F - 63.3 °F 66% 29.95 in 10.0 mi South 8.1 mph - N/A   Clear
9:15 PM 74.8 °F - 63.7 °F 68% 29.96 in 10.0 mi South 6.9 mph - N/A   Clear
9:35 PM 71.1 °F - 61.9 °F 73% 29.97 in 10.0 mi South 6.9 mph - N/A   Clear
9:55 PM 70.0 °F - 62.1 °F 76% 29.99 in 10.0 mi South 5.8 mph - N/A   Clear
10:15 PM 70.0 °F - 62.2 °F 76% 29.99 in 10.0 mi South 5.8 mph - N/A   Clear
10:35 PM 70.0 °F - 62.6 °F 77% 29.99 in 10.0 mi South 5.8 mph - N/A   Clear
10:55 PM 70.0 °F - 62.6 °F 77% 29.99 in 10.0 mi South 6.9 mph - N/A   Clear
11:15 PM 70.0 °F - 62.8 °F 78% 29.99 in 10.0 mi South 6.9 mph - N/A   Clear
11:35 PM 70.0 °F - 63.1 °F 79% 29.99 in 10.0 mi South 6.9 mph - N/A   Clear
11:55 PM 70.0 °F - 63.0 °F 78% 29.99 in 10.0 mi SSE 6.9 mph - N/A   Clear